sat.trackr.live / text

‹ back to catalog

STARLINK-1156

NORAD 45054 · 2020-006L

PAYLOAD ACTIVE UNKNOWN

§ Identity

Operator
Country
US
Launch date
2020-01-29
Launch site
AFETR
Launch vehicle
Mass (kg)
RCS (m²)

Purposes: comms

External: N2YO · Heavens-Above · Gunter

§ Orbital elements

Epoch: 2026-09-20T03:17:26.311776Z

Period
93.28 min
Inclination
53.1519°
Eccentricity
0.0000627
Mean motion
15.43656562 rev/d
Perigee alt
434.9 km
Apogee alt
435.8 km
Semi-major
6,813.5 km
B*
9.3437e-4
RAAN
89.9806°
Arg perigee
165.8008°
Mean anomaly
194.3017°
Rev number
36,642

§ Raw data

STARLINK-11561 45054U 20006L   26263.13711009  .00042577  00000+0  93437-3 0  99902 45054  53.1519  89.9806 0000627 165.8008 194.3017 15.43656562366426

JSON: /api/v1/satellites/45054 · /tle

For live sub-satellite position, see the globe view (requires WebGL).

§ Visibility from observer

Set your observer location to see the next 7 days of passes ≥ 10°. The values pass through the URL so the page stays shareable.

No JS? Fill the form by hand. The geolocation button needs JavaScript.